Hourly Data Report for October 10, 2016

All times are specified in Local Standard Time (LST). Add 1 hour to adjust for Daylight Saving Time where and when it is observed.

RESOLUTE BAY A
NUNAVUT

74°43'01.000" N
94°58'10.000" W
67.70 m
2403498
71924
YRB

Download Data

Hourly Data (October 2016)
Hourly Data Report for October 10, 2016
Temp Definition
°C
Dew Point Temp Definition
°C
Rel Hum Definition
%
Wind Dir Definition
10's deg

Wind Spd Definition
km/h
Visibility Definition
km
Stn Press Definition
kPa
Hmdx Definition


Wind Chill Definition


Weather Definition


TIME
00:00 Legend Double Dagger -8.5 -10.3 87 10 4 24.1 100.17   -11 Snow Showers
01:00 Legend Double Dagger -8.5 -10.3 87 2 4 24.1 100.15   -11 Snow Showers
02:00 Legend Double Dagger -8.6 -10.5 86 2 5 24.1 100.14   -11 LegendNANA
03:00 Legend Double Dagger -7.6 -10.3 81 7 6 24.1 100.12   -11 Cloudy
04:00 Legend Double Dagger -8.6 -10.7 85 36 1 24.1 100.12   -9 LegendNANA
05:00 Legend Double Dagger -10.3 -12.2 86 33 5 24.1 100.11   -13 LegendNANA
06:00 Legend Double Dagger -8.8 -11.5 81 36 2 24.1 100.09   -10 Mostly Cloudy
07:00 Legend Double Dagger -8.4 -11.0 82 36 1 24.1 100.06   -9 LegendNANA
08:00 Legend Double Dagger -8.6 -11.5 80 14 5 24.1 100.05   -11 LegendNANA
09:00 Legend Double Dagger -8.9 -11.1 84 6 23 24.1 100.04   -17 Mostly Cloudy
10:00 Legend Double Dagger -9.0 -11.4 83 7 23 24.1 100.05   -17 LegendNANA
11:00 Legend Double Dagger -8.1 -11.5 77 3 3 24.1 100.07   -10 LegendNANA
12:00 Legend Double Dagger -10.4 -13.2 80 6 16 24.1 100.09   -17 Mainly Clear
13:00 Legend Double Dagger -11.0 -14.0 79 5 21 24.1 100.11   -19 LegendNANA
14:00 Legend Double Dagger -11.4 -14.5 78 4 26 24.1 100.15   -21 LegendNANA
15:00 Legend Double Dagger -12.7 -15.3 81 4 30 24.1 100.15   -23 Mainly Clear
16:00 Legend Double Dagger -13.2 -15.4 84 4 34 24.1 100.17   -24 LegendNANA
17:00 Legend Double Dagger -14.0 -16.2 84 4 37 24.1 100.19   -26 LegendNANA
18:00 Legend Double Dagger -14.2 -16.2 85 3 37 8.1 100.22   -26 Blowing Snow
19:00 Legend Double Dagger -14.5 -16.6 84 3 42 2.4 100.22   -27 Blowing Snow
20:00 Legend Double Dagger -14.7 -16.8 84 3 21 24.1 100.22   -24 LegendNANA
21:00 Legend Double Dagger -14.6 -16.7 84 3 28 24.1 100.24   -25 Mainly Clear
22:00 Legend Double Dagger -13.6 -15.8 84 34 5 24.1 100.25   -17 LegendNANA
23:00 Legend Double Dagger -14.6 -16.9 83 32 11 24.1 100.25   -21 LegendNANA

Notes on Data Quality.

Legend

  • E = Estimated
  • M = Missing
  • NA = Not Available
  • ‡ = Partner data that is not subject to review by the National Climate Archives
Date modified: